User: anonymous   Login
Location: Mauna Kea VIS
(19.7591°N, 155.4561°W)
Time: 21:48:17
(UTC-10:00)
Language:

Cosmos 1624 Rocket - Orbit

View from above orbital plane
View from above orbital plane
View from above satellite
View from above satellite

Ground track
Ground track

The orbit data is extracted from the following two-line orbital elements,

1 15483U 85006B   16342.19715390  .00000009  00000-0  11930-4 0  9998
2 15483  74.0455 347.5973 0018541  11.7594  38.3744 14.36153092668993
Epoch (UTC): 07 December 2016 04:43:54
Eccentricity: 0.0018541
inclination: 74.0455°
perigee height: 758 km
apogee height: 784 km
right ascension of ascending node: 347.5973°
argument of perigee: 11.7594°
revolutions per day: 14.36153092
mean anomaly at epoch: 38.3744°
orbit number at epoch: 66899

The dashed part of the orbit path shows where the satellite is in the earth's shadow,  

DLR